GEFSMA_con_prob3kmehi_186.txt.gz
EHI
17 19 19 16 11 9 8 7 6 5 6 6 4 2 2 1 0 1 2 3 3 2 1 0 0 1 3 6 6 5 3 1 1 0 0 0 0 1 2 2 1 0 0
18 18 18 15 12 9 8 8 7 7 6 5 3 2 2 1 0 0 1 2 2 1 0 0 0 1 2 5 6 4 3 3 1 0 0 0 1 1 2 2 1 0 0
17 17 14 12 10 8 8 9 9 8 6 3 1 1 1 0 0 0 0 0 0 0 0 0 0 0 1 2 3 3 3 3 2 0 0 1 2 1 1 1 1 0 0
14 14 12 10 8 6 6 7 7 7 5 2 0 0 0 0 0 0 0 0 0 1 1 0 0 0 0 0 1 2 1 1 1 0 0 1 2 1 1 1 0 0 0
11 11 11 9 6 4 4 5 4 4 3 1 0 0 0 0 0 0 0 0 0 1 1 0 0 0 0 0 0 0 0 1 1 0 0 1 1 1 1 0 0 0 0
11 10 10 9 6 4 4 4 4 4 3 2 1 1 0 0 0 0 0 0 0 1 1 0 0 0 0 0 0 0 0 1 1 0 0 1 1 0 0 0 0 0 0
10 9 8 8 6 4 3 4 4 4 3 3 2 1 0 0 0 0 0 0 0 0 0 0 0 1 1 1 0 0 0 1 1 0 0 1 1 1 0 0 0 0 0
8 6 5 6 5 3 3 3 3 3 3 3 2 1 0 0 0 0 0 0 0 0 0 0 0 1 1 1 1 0 0 0 0 0 0 1 1 1 1 1 0 0 0
6 4 3 3 2 2 3 2 1 1 2 1 1 0 0 0 0 0 0 0 0 0 0 0 0 0 1 1 1 0 0 0 0 0 0 1 1 1 2 1 0 0 0
5 4 2 1 0 1 2 1 1 1 1 0 0 0 0 0 1 0 0 0 0 0 0 0 0 0 0 0 0 0 0 0 0 0 0 0 1 1 2 1 0 0 0
5 3 2 1 0 0 0 0 0 0 0 0 0 0 0 0 0 0 0 0 0 0 0 0 0 0 0 0 0 0 0 0 0 0 0 0 0 1 1 0 0 0 0
5 4 2 2 1 0 0 0 0 0 0 0 0 0 0 0 0 0 0 0 0 0 0 0 0 0 0 0 0 0 0 0 0 0 0 0 0 0 0 0 0 0 0
5 4 2 1 1 0 0 0 0 0 0 0 0 0 0 0 0 0 0 0 0 0 0 0 0 0 0 0 1 0 0 0 0 0 0 0 0 0 0 0 0 0 0
4 3 2 0 0 0 0 0 0 0 0 0 0 0 0 0 0 0 0 0 0 0 0 0 0 0 0 0 0 0 0 0 0 0 0 0 0 0 0 0 0 0 0
3 3 1 0 0 0 0 0 0 0 0 1 1 0 0 0 0 0 0 0 0 0 0 0 0 0 0 0 0 0 0 0 0 0 0 0 0 0 0 0 0 0 0
3 2 1 0 0 0 0 0 0 0 1 2 1 0 0 0 0 0 0 0 0 0 0 0 0 0 0 0 0 0 0 0 0 0 0 0 0 0 0 0 0 0 0
2 2 1 0 0 0 0 0 0 0 1 2 1 0 0 0 0 0 0 0 0 0 0 0 0 0 0 0 0 0 0 0 0 0 0 0 0 0 0 0 0 0 0
1 1 0 0 0 0 0 0 0 0 1 2 1 0 0 0 0 0 1 1 0 0 0 0 0 0 0 0 0 0 0 0 0 0 0 0 0 0 0 0 0 0 0
0 0 0 0 0 0 0 0 0 0 1 2 1 0 0 0 0 0 0 1 1 0 0 0 0 0 0 0 0 0 0 0 0 0 0 0 0 0 0 0 0 0 0
1 1 1 0 0 0 0 0 0 0 1 2 1 0 0 0 0 0 0 0 0 0 0 0 0 0 0 0 0 0 0 0 0 0 0 0 0 0 0 0 0 0 0
2 2 1 0 0 0 0 0 0 1 2 3 2 1 0 0 0 0 0 0 0 0 0 0 0 0 0 0 0 0 0 0 0 0 0 0 0 0 0 0 0 0 0
2 1 0 0 0 0 0 0 1 2 3 3 2 1 0 0 0 0 0 0 0 0 0 0 0 0 0 0 0 0 0 0 0 0 0 0 0 0 0 0 0 0 0
2 1 0 0 0 0 0 0 1 2 2 2 1 0 0 0 0 0 0 0 0 0 0 0 0 0 0 0 0 0 0 0 0 0 0 0 0 0 0 0 0 0 0
1 0 0 0 0 0 0 0 0 1 1 1 0 0 0 0 0 0 0 0 0 0 0 0 0 0 0 0 0 0 0 0 0 0 0 0 0 0 0 0 0 0 0
0 0 0 0 0 0 0 0 0 0 0 0 0 0 0 0 0 0 0 0 0 0 0 0 0 0 0 0 0 0 0 0 0 0 0 0 0 0 0 0 0 0 0
1 1 1 0 0 0 0 0 0 0 0 0 0 0 0 0 0 0 0 0 0 0 0 0 0 0 0 0 0 0 0 0 0 0 0 0 0 0 0 0 0 0 0

GEFSMA_con_prob3kmehi_192.txt.gz
EHI
28 28 29 28 24 21 20 20 18 11 6 4 2 2 2 1 2 6 12 19 21 19 14 11 10 11 10 10 13 16 16 16 16 12 11 12 10 7 7 7 6 5 5
30 30 30 27 24 22 21 21 18 13 8 5 4 4 4 4 5 7 10 14 17 16 14 11 9 8 7 7 11 13 11 10 11 10 10 10 8 6 6 6 5 5 5
33 31 30 27 24 23 22 21 19 15 10 7 7 8 7 7 8 8 7 8 10 11 10 9 7 5 3 5 7 7 6 6 8 9 8 6 6 6 6 6 5 4 4
31 30 28 26 24 23 21 18 17 15 12 9 8 8 8 9 9 7 5 4 4 6 6 5 5 3 1 3 3 2 3 4 7 9 8 6 5 5 5 5 4 2 2
28 28 27 24 22 22 20 16 14 14 12 9 6 5 6 8 8 5 2 2 2 4 3 2 2 1 0 1 1 1 1 2 5 8 10 9 7 6 4 3 2 1 0
26 26 25 23 20 20 20 16 11 11 10 8 5 3 4 6 6 2 1 1 1 1 1 0 0 1 0 0 0 0 0 0 2 6 8 9 8 7 4 2 1 0 0
24 22 22 22 21 21 19 14 9 7 7 7 5 3 3 4 2 1 1 1 0 0 1 1 1 1 0 0 0 0 0 1 1 2 4 5 6 7 5 2 0 0 0
24 21 20 21 21 20 16 11 7 5 4 5 4 3 2 1 0 0 0 0 0 1 2 2 2 2 1 0 0 1 1 1 1 1 1 3 4 5 4 2 0 0 0
23 21 20 19 19 17 13 9 7 5 2 2 2 2 1 0 0 0 0 0 0 1 2 1 1 3 3 2 0 1 2 2 2 2 1 2 3 4 3 1 0 0 0
20 20 20 20 18 14 11 8 6 4 2 1 1 1 0 0 0 0 0 0 0 1 1 0 1 2 4 3 1 0 1 1 3 3 2 2 3 4 2 1 0 0 0
17 18 19 19 16 14 10 8 6 5 4 2 1 0 0 0 0 0 0 0 0 0 0 0 0 1 3 3 2 0 0 0 2 3 3 3 2 2 1 0 0 0 0
15 15 16 16 14 12 9 8 8 8 7 4 2 0 0 0 0 0 0 0 0 0 0 0 0 0 1 1 1 0 0 0 0 1 2 2 1 0 0 0 0 0 0
11 12 13 13 12 10 8 8 8 8 7 4 2 0 0 0 0 0 0 0 0 0 0 0 0 0 0 0 0 0 0 0 0 0 1 1 0 0 0 0 0 0 0
9 11 12 11 10 8 7 7 7 7 5 3 2 1 0 0 0 0 0 0 0 0 0 0 0 1 0 0 0 0 0 0 0 0 0 0 0 0 0 0 0 0 0
8 10 11 10 9 7 6 7 7 6 5 3 3 2 1 0 0 0 0 0 0 0 0 0 0 0 0 0 0 0 0 0 0 0 0 0 0 0 0 0 0 0 0
7 8 10 10 8 7 6 7 7 6 4 3 3 3 1 0 0 0 0 0 0 0 0 0 0 0 0 0 0 0 0 0 0 0 0 0 0 0 0 0 0 0 0
6 7 7 7 6 5 5 6 5 4 3 3 3 2 2 1 1 1 0 0 0 0 0 0 0 0 0 0 0 0 0 0 0 0 0 0 0 0 0 0 0 0 0
5 5 5 4 3 3 4 4 4 3 3 2 2 1 1 2 2 1 0 0 0 0 0 0 0 0 0 0 0 0 0 0 0 0 0 0 0 0 0 0 0 0 0
3 4 5 3 1 1 2 3 3 2 1 1 1 0 1 2 2 1 0 0 0 0 0 0 0 0 0 0 0 0 0 0 0 0 0 0 0 0 0 0 0 0 0
2 3 4 3 1 0 1 2 2 1 0 0 0 0 1 1 1 0 0 0 0 0 0 0 0 0 0 0 0 0 0 0 0 0 0 0 0 0 0 0 0 0 0
2 3 3 2 1 0 0 1 1 0 0 0 0 0 0 0 0 0 0 0 0 0 0 0 0 0 0 0 0 0 0 0 0 0 0 0 0 0 0 0 0 0 0
3 3 3 2 0 0 0 0 0 0 0 0 0 0 0 0 0 0 0 0 0 0 0 0 0 0 0 0 0 0 0 0 0 0 0 0 0 0 0 0 0 0 0
2 3 3 2 1 0 0 0 0 0 0 0 0 0 0 0 0 0 0 0 0 0 0 0 0 0 0 0 0 0 0 0 0 0 0 0 0 0 0 0 0 0 0
2 2 3 2 1 0 0 0 0 0 0 0 0 0 0 0 0 0 0 0 0 0 0 0 0 0 0 0 0 0 0 0 0 0 0 0 0 0 0 0 0 0 0
2 3 3 2 1 0 0 0 0 0 0 0 0 0 0 0 0 0 0 0 0 0 0 0 0 0 0 0 0 0 0 0 0 0 0 0 0 0 0 0 0 0 0
3 3 3 1 0 0 0 0 0 0 0 0 0 0 0 0 0 0 0 0 0 0 0 0 0 0 0 0 0 0 0 0 0 0 0 0 0 0 0 0 0 0 0

GEFSMA_con_prob3kmehi_198.txt.gz
EHI
9 7 6 6 6 6 6 6 6 5 5 5 4 3 3 1 0 0 1 3 6 9 10 11 11 10 9 8 10 10 9 8 6 5 6 7 6 7 7 4 2 2 2
9 7 6 6 6 6 6 5 5 4 4 4 4 3 3 2 1 0 1 3 5 8 10 11 10 9 7 6 7 8 7 6 5 4 4 5 5 6 5 3 1 1 1
8 7 6 6 6 6 5 5 4 3 3 3 3 3 3 3 2 1 0 1 3 5 8 9 8 6 5 4 3 3 3 3 3 3 2 2 3 3 2 1 0 0 0
6 5 5 6 6 5 4 4 3 3 3 2 2 2 2 2 2 1 0 0 1 2 4 6 6 5 3 2 1 1 1 2 2 2 1 1 2 1 0 0 0 0 0
5 4 4 4 4 4 4 4 3 3 2 1 1 1 1 0 1 1 0 0 0 1 1 4 5 4 2 1 0 0 0 1 1 1 1 1 2 2 1 0 0 0 0
4 4 3 3 3 3 5 5 4 3 1 0 0 0 0 0 0 0 0 0 0 0 0 1 2 2 2 1 0 0 0 0 0 0 0 1 3 4 2 1 0 0 0
4 4 3 2 2 2 3 4 3 2 1 0 0 0 0 0 0 0 0 0 0 0 0 0 0 0 1 1 0 0 0 0 0 0 0 0 2 4 4 2 1 0 1
4 3 2 1 0 1 1 1 1 1 0 0 0 0 0 0 0 0 0 0 0 0 1 0 0 0 0 0 0 0 0 0 1 1 0 0 1 3 4 3 2 1 2
3 3 1 0 0 0 0 0 0 0 0 0 0 0 0 0 0 0 0 0 0 0 0 0 0 0 0 0 0 0 0 0 1 1 1 0 0 1 1 2 2 2 2
3 3 1 0 0 0 0 0 0 0 0 0 0 0 0 0 0 0 0 0 0 0 0 0 0 0 0 0 0 0 0 0 1 1 1 0 0 0 0 1 2 2 1
3 3 2 1 0 0 0 0 0 0 0 0 0 0 0 0 0 0 0 0 0 0 0 0 0 0 0 0 0 0 0 0 0 0 0 0 0 0 0 0 1 1 0
3 3 2 1 0 0 0 0 0 0 0 0 0 0 0 0 0 0 0 0 0 0 0 0 0 0 0 0 0 0 0 0 0 0 0 0 0 0 0 0 0 0 0
4 2 1 1 0 0 1 0 0 0 0 0 0 0 0 0 0 0 0 0 0 0 0 0 0 0 0 0 0 0 0 0 0 0 0 0 0 0 0 0 0 0 0
4 2 0 0 0 0 0 0 0 0 0 0 0 0 0 0 0 0 0 0 0 0 0 0 0 0 0 0 0 0 0 0 0 0 0 0 0 0 0 0 0 0 0
4 1 0 0 0 0 0 0 0 0 0 0 0 0 0 0 0 0 0 0 0 0 0 0 0 0 0 0 0 0 0 0 0 0 0 0 0 0 0 0 0 1 1
3 1 0 0 0 0 0 0 0 0 0 0 0 0 0 0 0 0 0 0 0 0 0 0 0 0 0 0 0 0 0 0 0 0 0 0 0 0 0 0 0 0 0
2 1 0 1 0 0 0 0 0 0 0 0 0 0 0 0 0 0 0 0 0 0 0 0 0 0 0 0 0 0 0 0 0 0 0 0 0 0 0 0 0 0 0
1 0 0 0 0 0 0 0 0 0 0 0 0 0 0 0 0 0 0 0 0 0 0 0 0 0 0 0 0 0 0 0 0 0 0 0 0 0 0 0 0 0 0
0 0 0 0 0 0 0 0 0 0 0 0 0 0 0 0 0 0 0 0 0 0 0 0 0 0 0 0 0 0 0 0 0 0 0 0 0 0 0 0 0 0 0
0 0 0 0 0 0 0 0 0 0 0 0 0 0 0 0 0 0 0 0 0 0 0 0 0 0 0 0 0 0 0 0 0 0 0 0 0 0 0 0 0 0 0
0 0 0 0 0 0 0 0 0 0 0 0 0 0 0 0 0 0 0 0 0 0 0 0 0 0 0 0 0 0 0 0 0 0 0 0 0 0 0 0 0 0 0
0 0 0 0 0 0 0 0 0 0 0 0 0 0 0 0 0 0 0 0 0 0 0 0 0 0 0 0 0 0 0 0 0 0 0 0 0 0 0 0 0 0 0
0 0 0 0 0 0 0 0 0 0 0 0 0 0 0 0 0 0 0 0 0 0 0 0 0 0 0 0 0 0 0 0 0 0 0 0 0 0 0 0 0 0 0
0 0 0 0 0 0 0 0 0 0 0 0 0 0 0 0 0 0 0 0 0 0 0 0 0 0 0 0 0 0 0 0 0 0 0 0 0 0 0 0 0 0 0
0 0 0 0 0 0 0 0 0 0 0 0 0 0 0 0 0 0 0 0 0 0 0 0 0 0 0 0 0 0 0 0 0 0 0 0 0 0 0 0 0 0 0
0 0 0 0 0 0 0 0 0 0 0 0 0 0 0 0 0 0 0 0 0 0 0 0 0 0 0 0 0 0 0 0 0 0 0 0 0 0 0 0 0 0 0

GEFSMA_con_prob3kmehi_204.txt.gz
EHI
4 3 3 3 2 1 1 1 2 2 1 1 1 0 0 1 4 6 6 5 3 1 0 0 1 3 4 3 3 4 6 7 7 6 5 3 2 2 1 1 2 2 1
5 3 2 2 2 2 2 2 3 2 1 1 0 0 0 1 3 5 5 4 3 2 1 1 2 3 3 2 2 3 4 5 4 5 6 5 3 3 2 2 3 3 1
5 3 1 1 1 1 2 2 2 2 2 1 0 0 1 2 3 4 4 3 1 1 2 3 3 3 2 2 1 1 2 2 2 2 4 5 3 3 3 2 2 2 1
5 3 1 0 0 0 1 1 1 1 1 1 0 0 1 1 1 2 2 2 1 1 2 2 3 3 3 3 2 1 1 1 1 1 1 2 2 2 2 1 1 0 0
5 4 3 1 0 0 0 0 0 0 0 0 0 0 0 0 0 0 1 1 1 0 1 1 1 2 3 3 3 2 1 0 0 0 0 0 1 2 1 1 1 0 0
4 4 3 1 0 0 0 0 0 0 0 0 0 0 0 0 0 0 0 0 0 0 0 0 0 1 2 3 3 2 1 0 0 0 0 0 0 1 1 1 0 0 0
3 2 2 1 0 0 0 0 0 0 0 0 0 0 0 0 0 0 0 0 0 0 0 0 0 0 1 2 1 1 1 0 0 0 0 0 0 0 0 0 0 0 0
3 2 1 0 0 0 0 0 0 0 0 0 0 0 0 0 0 0 0 0 0 0 0 0 0 0 1 1 1 0 0 0 0 0 0 0 0 0 0 0 0 0 0
4 3 1 0 0 0 0 0 0 0 0 0 0 0 0 0 0 0 0 0 0 0 0 0 0 0 0 0 0 0 0 0 0 0 0 0 0 0 0 0 0 0 0
4 3 2 1 0 0 0 0 0 0 0 0 0 0 0 0 0 0 0 0 0 0 0 0 0 0 0 0 0 0 0 0 0 0 0 0 0 0 0 0 0 0 0
3 3 2 1 0 0 0 0 0 0 0 0 0 0 0 0 0 0 0 0 0 0 0 0 0 0 0 0 0 0 0 0 0 0 0 0 0 0 0 0 0 0 0
1 2 2 1 0 0 0 0 0 0 0 0 0 0 0 0 0 0 0 0 0 0 0 0 0 0 0 0 0 0 0 0 0 0 0 0 0 0 0 0 1 1 1
0 1 1 1 0 0 0 0 0 0 0 0 0 0 0 0 0 0 0 0 0 0 0 0 0 0 0 0 0 0 0 0 0 0 0 0 0 0 0 0 1 1 0
0 0 0 0 0 0 0 0 0 0 0 0 0 0 0 0 0 0 0 0 0 0 0 0 0 0 0 0 0 0 0 0 0 0 0 0 0 0 0 0 0 0 0
0 0 0 0 0 0 0 0 0 0 0 0 0 0 0 0 0 0 0 0 0 0 0 0 0 0 0 0 0 0 0 0 0 0 0 0 0 0 0 0 0 0 0
0 0 0 0 0 0 0 0 0 0 0 0 0 0 0 0 0 0 0 0 0 0 0 0 0 0 0 0 0 0 0 0 0 0 0 0 0 0 0 0 0 0 0
0 0 0 0 0 0 0 0 0 0 0 0 0 0 0 0 0 0 0 0 0 0 0 0 0 0 0 0 0 0 0 0 0 0 0 0 0 0 0 0 0 0 0
0 0 0 0 0 0 0 0 0 0 0 0 0 0 0 0 0 0 0 0 0 0 0 0 0 0 0 0 0 0 0 0 0 0 0 0 0 0 0 0 0 0 0
0 0 0 0 0 0 0 0 0 0 0 0 0 0 0 0 0 0 0 0 0 0 0 0 0 0 0 0 0 0 0 0 0 0 0 0 0 0 0 0 0 0 0
0 0 0 0 0 0 0 0 0 0 0 0 0 0 0 0 0 0 0 0 0 0 0 0 0 0 0 0 0 0 0 0 0 0 0 0 0 0 0 0 0 0 0
0 0 0 0 0 0 0 0 0 0 0 0 0 0 0 0 0 0 0 0 0 0 0 0 0 0 0 0 0 0 0 0 0 0 0 0 0 0 0 0 0 0 0
0 0 0 0 0 0 0 0 0 0 0 0 0 0 0 0 0 0 0 0 0 0 0 0 0 0 0 0 0 0 0 0 0 0 0 0 0 0 0 0 0 0 0
0 0 0 0 0 0 0 0 0 0 0 0 0 0 0 0 0 0 0 0 0 0 0 0 0 0 0 0 0 0 0 0 0 0 0 0 0 0 0 0 0 0 0
0 0 0 0 0 0 0 0 0 0 0 0 0 0 0 0 0 0 0 0 0 0 0 0 0 0 0 0 0 0 0 0 0 0 0 0 0 0 0 0 0 0 0
0 0 0 0 0 0 0 0 0 0 0 0 0 0 0 0 0 0 0 0 0 0 0 0 0 0 0 0 0 0 0 0 0 0 0 0 0 0 0 0 0 0 0
0 0 0 0 0 0 0 0 0 0 0 0 0 0 0 0 0 0 0 0 0 0 0 0 0 0 0 0 0 0 0 0 0 0 0 0 0 0 0 0 0 0 0

GEFSMA_con_prob3kmehi_210.txt.gz
EHI
22 21 20 16 11 8 7 6 4 2 0 0 0 0 0 1 2 3 3 3 4 5 6 5 3 4 6 9 12 13 12 10 7 6 9 9 6 5 5 5 4 4 4
20 20 19 16 11 9 8 6 4 2 0 0 0 0 0 1 1 2 3 3 3 4 5 5 4 4 7 10 12 13 12 10 6 5 6 8 7 5 5 4 3 3 3
20 18 16 14 11 11 11 9 5 2 0 0 0 0 1 1 1 1 2 3 3 4 5 5 4 5 7 10 12 12 12 10 6 4 5 7 7 6 4 3 1 1 1
19 18 17 15 13 13 13 12 8 4 1 0 0 0 1 1 1 0 1 1 3 4 5 6 5 5 7 9 11 10 10 8 5 5 6 7 7 6 5 4 2 0 0
17 17 18 17 15 15 15 12 9 6 3 1 0 0 0 0 0 0 0 1 2 3 4 5 4 5 7 9 9 8 6 6 5 6 7 6 5 5 6 5 3 1 0
15 15 16 16 16 16 15 13 11 8 5 2 1 0 0 0 0 0 1 1 1 1 2 3 4 6 7 8 7 6 4 4 5 6 6 5 5 5 6 5 4 2 1
13 14 15 15 16 16 15 13 12 9 6 4 3 2 0 0 0 0 0 0 0 0 0 1 4 5 5 6 6 5 4 4 4 5 5 5 5 5 5 4 3 2 1
14 15 15 14 15 16 16 15 13 9 7 6 6 4 1 0 1 0 0 0 1 1 1 1 2 2 3 5 5 4 4 3 3 4 4 6 6 5 4 4 3 1 1
15 16 15 13 14 16 16 16 15 12 10 8 7 5 2 1 1 0 0 0 1 2 2 1 1 1 3 5 5 3 3 3 3 3 4 6 7 6 5 4 3 2 1
14 13 13 13 14 15 15 16 16 15 12 10 8 5 3 2 1 0 0 0 0 1 1 1 2 3 4 6 6 3 3 3 3 3 3 4 6 5 4 3 3 3 3
12 11 10 11 12 14 15 17 17 15 12 10 8 6 3 2 1 0 0 0 0 0 0 1 3 4 5 6 5 2 2 2 2 2 2 3 3 3 1 1 2 2 2
12 10 8 7 7 10 14 16 16 13 11 10 8 6 4 2 1 1 0 0 0 0 0 0 2 4 5 5 3 1 1 1 0 1 1 1 1 1 0 0 1 1 1
10 8 6 5 5 7 10 12 11 10 8 8 6 5 4 2 1 1 1 0 0 0 0 0 1 2 4 5 3 1 0 0 0 0 0 0 0 0 0 0 0 0 0
9 6 4 4 4 4 5 6 6 6 5 4 3 2 1 1 1 1 1 1 0 0 0 0 0 1 2 4 3 1 0 0 0 0 0 0 0 0 0 0 0 0 0
7 5 3 2 1 1 1 2 3 4 3 3 1 0 0 0 0 1 2 2 1 0 0 0 0 0 1 2 1 0 0 0 0 0 0 0 0 0 0 0 0 0 0
3 2 1 0 1 1 1 1 3 3 3 3 2 1 0 0 0 2 2 2 1 0 0 0 0 0 1 1 0 0 0 0 0 0 0 0 0 0 0 0 0 0 0
1 0 0 0 1 2 2 2 3 3 2 2 2 1 0 0 1 2 2 1 1 0 0 0 0 1 1 1 1 1 1 0 0 0 0 0 0 0 0 0 0 0 0
0 0 0 0 1 1 1 1 2 2 1 1 1 0 0 1 2 2 1 0 0 0 0 0 0 1 2 3 3 2 1 0 0 0 0 0 0 0 0 0 0 0 0
0 0 0 0 0 0 0 0 1 1 0 0 0 0 0 1 2 3 2 1 1 1 1 0 0 1 2 4 5 3 1 0 0 0 0 0 0 0 0 0 0 0 0
0 0 0 0 0 0 0 0 0 0 0 0 0 0 0 1 2 3 3 2 2 2 2 1 1 1 2 5 5 3 1 0 0 0 0 0 0 0 0 0 0 0 0
0 0 0 0 0 0 0 0 0 0 0 0 0 1 1 0 1 2 2 2 3 3 3 3 2 2 2 4 4 2 1 0 0 0 0 0 0 0 0 0 0 0 0
0 0 0 0 0 0 0 0 0 0 0 0 1 2 2 1 0 0 0 1 1 2 3 3 2 2 2 3 4 2 0 0 0 0 0 0 0 0 0 0 0 0 0
0 0 0 0 0 0 0 0 0 0 0 0 2 3 3 1 1 1 1 0 0 1 1 2 1 1 1 2 3 2 0 0 0 0 0 0 0 0 0 0 0 0 0
0 0 0 0 0 0 0 0 0 0 0 0 1 2 3 2 2 2 2 1 1 1 0 1 1 1 0 1 2 2 0 0 0 0 0 0 0 0 0 0 0 0 0
0 0 0 0 0 0 0 0 0 0 1 0 0 1 2 2 1 1 2 2 2 2 1 0 0 0 0 0 1 1 0 0 0 0 0 0 0 0 0 0 0 0 0
0 0 0 0 0 0 0 0 0 0 1 0 0 0 1 1 0 1 2 3 2 2 1 0 0 0 0 0 0 1 0 0 0 0 0 0 0 0 0 0 0 0 0

GEFSMA_con_prob3kmehi_216.txt.gz
EHI
20 20 22 21 17 13 10 7 7 9 7 4 3 3 4 5 3 1 4 9 10 11 10 9 7 7 8 10 11 11 12 13 14 13 12 9 7 6 6 6 5 3 3
26 25 25 23 17 12 10 9 10 11 10 6 4 3 4 5 4 3 4 7 9 10 10 9 7 7 8 9 10 9 9 12 14 15 14 11 8 6 6 6 6 5 4
29 27 27 23 17 12 14 15 15 16 13 7 4 3 5 6 6 5 5 5 7 8 8 8 6 7 8 7 6 7 7 9 13 14 14 12 9 7 6 5 4 5 5
28 27 27 23 17 14 17 19 19 17 13 7 4 4 5 7 7 6 5 5 5 7 6 6 5 7 8 7 5 5 7 7 8 10 11 10 9 9 7 4 2 2 3
28 28 27 24 19 18 19 20 20 17 13 8 5 3 4 5 6 5 5 6 5 5 5 4 5 7 9 9 7 7 7 6 7 8 9 9 9 9 6 4 3 1 1
26 26 26 25 23 22 22 22 21 18 14 9 5 3 3 4 5 6 6 6 5 3 3 4 6 7 8 8 8 8 7 6 6 7 8 8 8 8 6 4 3 1 0
23 22 23 24 24 23 23 22 21 18 14 10 7 5 3 3 3 5 6 5 4 3 3 5 6 7 7 6 6 7 6 5 5 6 6 6 6 7 6 4 2 1 0
22 20 20 22 23 22 21 20 19 16 13 11 10 8 4 2 2 3 5 6 5 4 4 5 6 6 6 4 3 4 4 4 4 5 5 5 4 5 5 3 1 1 0
21 20 18 19 20 20 20 17 16 15 12 11 11 8 4 2 1 1 4 6 6 6 5 5 6 6 6 4 3 2 2 2 4 5 6 6 4 3 4 3 2 2 2
21 19 17 16 17 18 18 16 16 15 12 11 10 8 5 3 1 1 3 5 6 6 6 5 5 5 6 6 5 3 1 1 1 3 5 6 5 3 3 3 3 3 4
20 18 16 17 18 19 19 18 17 15 13 11 10 8 6 5 2 1 1 2 3 5 6 6 5 6 7 7 7 4 1 0 0 1 3 4 4 3 3 3 3 3 4
20 19 18 18 19 19 19 17 15 14 12 10 9 7 6 6 4 1 0 0 1 2 4 6 7 7 7 7 6 3 0 0 0 0 1 1 1 2 3 3 3 3 3
19 19 19 19 18 17 15 13 12 11 10 9 8 6 5 5 4 1 0 0 0 0 2 3 6 6 6 6 5 1 0 0 0 0 0 0 0 1 2 2 2 2 2
16 16 17 18 17 14 11 10 9 9 9 9 7 4 4 4 3 1 0 0 0 0 0 1 2 4 5 5 3 1 0 0 0 0 0 0 0 0 1 1 1 1 1
12 13 15 15 13 10 9 9 9 8 8 7 4 3 3 3 3 1 0 0 0 0 0 0 1 3 5 5 2 0 0 0 0 0 0 0 0 0 0 0 0 0 0
9 10 11 10 7 6 7 8 8 7 5 3 2 2 2 3 2 1 0 1 1 1 0 1 2 3 4 3 1 1 1 0 0 0 0 0 0 0 0 0 0 0 0
8 8 8 6 4 4 5 7 6 4 3 1 1 0 1 2 1 1 1 2 2 2 1 2 2 3 3 2 1 2 2 1 0 0 0 0 0 0 0 0 0 0 0
7 7 5 4 3 3 4 5 4 3 2 1 0 0 0 0 1 1 2 3 3 3 2 2 3 3 3 3 2 2 2 1 0 0 0 0 0 0 0 0 0 0 0
6 5 4 3 3 2 2 2 1 1 1 0 0 0 0 0 0 1 3 3 3 3 3 3 3 3 3 3 3 3 2 1 0 0 0 0 0 0 0 0 0 0 0
5 4 3 3 2 1 0 0 0 0 0 0 0 0 0 0 0 1 3 3 3 3 3 3 3 3 3 3 3 3 2 1 0 0 0 0 0 0 0 0 0 0 0
4 3 3 2 1 0 0 0 0 0 0 0 0 0 0 0 0 1 2 3 3 3 3 3 3 3 3 3 3 2 1 0 0 0 0 0 0 0 0 0 0 0 0
3 3 3 1 0 0 0 0 0 0 0 0 0 0 0 0 0 1 1 1 2 3 3 3 3 3 3 3 2 1 0 0 0 0 0 0 0 0 0 0 0 0 0
3 3 2 1 0 0 0 0 0 0 0 0 0 0 0 0 0 0 0 1 1 1 2 3 3 3 3 3 2 1 0 0 0 0 0 0 0 0 0 0 0 0 0
3 2 1 0 0 0 0 0 0 0 0 0 0 0 0 0 0 0 1 1 1 1 1 2 2 2 2 2 2 1 0 0 0 0 0 0 0 0 0 0 0 0 0
2 1 0 0 0 0 0 0 0 0 0 0 0 0 0 0 0 0 1 1 1 0 0 1 1 1 1 1 1 1 0 0 0 0 0 0 0 0 0 0 0 0 0
2 1 0 0 0 0 0 0 0 0 0 0 0 0 0 0 0 0 1 1 1 0 0 0 0 0 0 0 0 0 0 0 0 0 0 0 0 0 0 0 0 0 0

GEFSMA_con_prob3kmehi_222.txt.gz
EHI
7 7 6 6 6 4 2 1 0 0 0 0 0 0 0 0 0 0 1 3 4 7 11 11 9 7 6 6 6 5 3 1 0 1 4 6 5 4 4 5 7 7 6
8 7 6 6 5 4 2 1 0 0 0 0 0 0 0 0 0 0 0 1 2 4 8 10 9 7 6 6 6 6 4 2 1 0 2 5 5 5 5 6 7 8 8
8 6 5 5 4 3 3 1 1 0 0 0 0 0 0 0 0 0 0 0 1 3 6 8 8 7 7 6 6 5 4 2 1 0 0 2 5 6 6 6 7 8 9
6 5 4 4 4 3 3 3 2 1 0 0 0 0 0 0 0 0 0 0 1 3 4 6 7 7 7 6 6 4 2 1 0 0 0 1 3 5 5 5 5 7 9
5 5 4 4 5 4 3 3 2 1 0 0 0 0 0 0 0 0 0 0 1 2 3 4 5 6 6 6 6 5 3 1 0 1 1 1 2 4 4 3 4 5 7
5 5 4 4 5 5 4 4 3 1 0 1 1 1 0 0 0 0 0 0 1 2 3 3 4 4 4 5 5 5 5 2 1 1 1 1 1 2 3 3 3 3 3
4 3 3 4 4 5 5 4 4 3 1 2 2 1 0 0 0 0 0 0 0 1 2 3 3 3 3 3 3 3 4 3 2 1 1 0 0 2 3 3 2 1 1
4 3 3 3 3 3 3 3 3 3 2 1 1 0 0 0 0 0 0 0 0 0 1 2 3 3 3 2 1 1 2 3 2 1 0 0 0 1 2 3 2 1 0
5 4 3 2 3 3 1 1 2 3 3 1 0 0 0 0 0 0 0 0 0 0 0 1 2 3 3 1 0 0 1 1 2 2 1 0 0 1 1 1 1 1 0
4 4 4 3 3 3 2 1 1 2 3 2 1 0 0 0 0 0 0 0 0 0 0 0 1 2 2 1 0 0 0 1 2 3 2 1 0 0 0 0 0 0 0
4 4 4 3 3 3 3 2 1 1 3 2 1 0 0 0 0 0 0 0 0 0 0 0 0 1 1 1 0 0 0 0 1 2 2 1 0 0 0 0 0 0 0
3 3 3 3 3 3 3 3 2 2 3 2 1 0 0 0 0 0 0 0 0 0 0 0 0 0 0 0 0 0 0 0 0 1 1 1 0 0 0 0 0 0 0
2 2 3 3 3 3 3 3 4 4 3 2 0 0 0 0 0 0 0 0 0 0 0 0 0 0 0 0 0 0 0 0 0 0 0 0 0 0 0 0 0 0 0
2 3 3 3 3 3 3 3 4 4 3 2 0 0 0 0 0 0 0 0 0 0 0 0 0 0 0 0 0 0 0 0 0 0 0 0 0 0 0 0 0 0 0
3 3 3 3 3 3 3 3 3 3 2 1 0 0 0 0 0 0 0 0 0 0 0 0 0 0 0 0 0 1 1 1 0 0 0 0 0 0 0 0 0 0 0
3 3 3 3 3 3 3 2 2 1 1 0 0 0 0 0 0 0 0 0 0 0 0 0 0 0 0 0 0 1 1 1 0 0 0 0 0 0 0 0 0 0 0
3 3 3 3 3 3 1 1 1 0 0 0 0 0 0 0 0 0 0 0 0 0 0 0 0 0 0 0 0 0 0 0 0 0 0 0 0 0 0 0 0 0 0
2 3 3 3 3 3 1 0 0 0 0 0 0 0 0 0 0 0 0 0 0 0 0 0 0 0 0 0 0 0 0 0 0 0 0 0 0 0 0 0 0 0 0
3 3 3 3 3 3 2 0 0 0 0 0 0 0 0 0 0 0 0 0 0 0 0 0 0 0 0 0 0 0 0 0 0 0 0 0 0 0 0 0 0 0 0
2 2 2 2 2 2 1 0 0 0 0 0 0 0 0 0 0 0 0 0 0 0 0 0 0 0 0 0 0 0 0 0 0 0 0 0 0 0 0 0 0 0 0
1 1 1 1 1 1 0 0 0 0 0 0 0 0 0 0 0 0 0 0 0 0 0 0 0 0 0 0 0 0 0 0 0 0 0 0 0 0 0 0 0 0 0
0 0 0 0 0 0 0 0 0 0 0 0 0 0 0 0 0 0 0 0 0 0 0 0 0 0 0 0 0 0 0 0 0 0 0 0 0 0 0 0 0 0 0
0 0 0 0 0 0 0 0 0 0 0 0 0 0 0 0 0 0 0 0 0 0 0 0 0 0 0 0 0 0 0 0 0 0 0 0 0 0 0 0 0 0 0
0 0 0 0 0 0 0 0 0 0 0 0 0 0 0 0 0 0 0 0 0 0 0 0 0 0 0 0 0 0 0 0 0 0 0 0 0 0 0 0 0 0 0
0 0 0 0 0 0 0 0 0 0 0 0 0 0 0 0 0 0 0 0 0 0 0 0 0 0 0 0 0 0 0 0 0 0 0 0 0 0 0 0 0 0 0
0 0 0 0 0 0 0 0 0 0 0 0 0 0 0 0 0 0 0 0 0 0 0 0 0 0 0 0 0 0 0 0 0 0 0 0 0 0 0 0 0 0 0

GEFSMA_con_prob3kmehi_228.txt.gz
EHI
14 13 11 9 7 5 4 4 5 4 3 3 2 1 0 0 0 0 0 1 2 3 3 2 1 0 1 1 1 1 1 1 2 2 2 3 3 2 2 3 5 6 6
12 12 11 10 8 6 4 4 4 4 3 2 1 0 0 0 0 0 0 1 2 2 2 2 1 0 1 1 1 1 0 0 1 2 3 3 3 2 1 2 4 5 5
10 11 11 10 9 7 5 4 4 3 3 2 0 0 0 0 0 0 0 0 1 1 1 1 0 1 1 1 1 1 0 0 1 3 3 2 3 2 1 1 1 2 2
10 11 11 10 9 7 5 4 3 3 3 2 1 0 0 0 0 0 0 0 0 1 1 0 0 1 1 0 0 0 0 0 1 2 3 3 4 4 2 1 0 0 0
9 9 9 9 8 7 5 4 3 3 3 2 1 0 0 0 0 0 0 0 1 2 1 0 0 0 0 0 0 0 0 0 1 2 3 4 5 5 4 2 1 0 0
6 6 6 6 6 5 4 3 3 3 3 2 1 0 0 0 0 0 0 0 1 2 2 1 1 1 0 0 0 0 0 1 1 2 3 4 4 4 3 3 3 2 1
2 2 2 3 4 4 3 3 3 3 3 2 1 0 0 0 0 0 0 0 1 2 2 1 2 2 1 1 0 0 0 1 2 2 3 2 2 2 2 3 5 4 2
0 0 0 1 2 3 3 3 3 3 3 2 1 0 0 0 0 0 0 0 0 1 2 2 3 3 3 2 1 0 0 0 1 2 2 1 1 1 1 2 4 4 3
0 0 0 0 1 1 2 3 3 3 3 1 1 0 0 0 0 0 0 0 0 0 1 2 2 3 3 2 1 0 0 0 0 1 1 1 1 2 1 1 2 2 1
0 0 0 0 0 0 1 1 2 3 3 2 1 0 0 0 0 0 0 0 0 0 0 1 1 2 2 1 0 0 0 0 0 0 1 1 2 2 2 1 0 0 0
0 0 0 0 0 0 0 0 1 1 2 3 2 1 0 0 0 0 0 0 0 0 0 0 0 1 1 0 0 0 0 0 0 0 0 1 2 2 2 1 0 0 0
0 0 0 0 0 0 0 0 0 0 2 3 3 1 1 0 0 0 0 0 0 0 0 0 0 0 0 0 0 0 0 0 0 0 0 0 1 1 1 1 0 0 0
0 0 0 0 0 0 0 0 0 1 1 2 3 3 2 1 0 0 0 0 0 0 0 0 0 0 0 0 0 0 0 0 0 0 0 0 0 0 0 0 0 0 0
0 0 0 0 0 0 0 0 1 1 1 1 2 3 2 1 1 0 0 0 0 0 0 0 0 0 0 0 0 0 0 0 0 0 0 0 0 0 0 0 0 0 0
0 0 0 0 0 0 0 0 0 0 0 1 2 2 1 1 1 0 0 0 0 0 0 0 0 0 0 0 0 0 0 0 0 0 0 0 0 0 0 0 0 0 0
0 1 1 0 0 0 0 0 0 0 1 2 2 1 1 1 1 0 0 0 0 0 0 0 0 0 0 0 0 0 0 0 0 0 0 0 0 0 0 0 0 0 0
1 1 1 0 0 0 0 0 0 0 1 2 1 1 0 0 0 0 0 0 0 0 0 0 0 0 0 0 0 0 0 0 0 0 0 0 0 0 0 0 0 0 0
0 1 1 0 0 0 0 0 0 0 1 1 0 0 0 0 0 0 0 0 0 0 0 0 0 0 0 0 0 0 0 0 0 0 0 0 0 0 0 0 0 0 0
0 0 0 0 0 0 0 0 0 0 0 0 0 0 0 0 0 0 0 0 0 0 0 0 0 0 0 0 0 0 0 0 0 0 0 0 0 0 0 0 0 0 0
0 0 0 0 0 0 0 0 0 0 0 0 0 0 0 0 0 0 0 0 0 0 0 0 0 0 0 0 0 0 0 0 0 0 0 0 0 0 0 0 0 0 0
0 0 0 0 0 0 0 0 0 0 0 0 0 0 0 0 0 0 0 0 0 0 0 0 0 0 0 0 0 0 0 0 0 0 0 0 0 0 0 0 0 0 0
0 0 0 0 0 0 0 0 0 0 0 0 0 0 0 0 0 0 0 0 0 0 0 0 0 0 0 0 0 0 0 0 0 0 0 0 0 0 0 0 0 0 0
0 0 0 0 0 0 0 0 0 0 0 0 0 0 0 0 0 0 0 0 0 0 0 0 0 0 0 0 0 0 0 0 0 0 0 0 0 0 0 0 0 0 0
0 0 0 0 0 0 0 0 0 0 0 0 0 0 0 0 0 0 0 0 0 0 0 0 0 0 0 0 0 0 0 0 0 0 0 0 0 0 0 0 0 0 0
0 0 0 0 0 0 0 0 0 0 0 0 0 0 0 0 0 0 0 0 0 0 0 0 0 0 0 0 0 0 0 0 0 0 0 0 0 0 0 0 0 0 0
0 0 0 0 0 0 0 0 0 0 0 0 0 0 0 0 0 0 0 0 0 0 0 0 0 0 0 0 0 0 0 0 0 0 0 0 0 0 0 0 0 0 0

GEFSMA_con_prob3kmehi_234.txt.gz
EHI
13 15 17 16 16 16 13 11 8 4 2 1 0 0 0 0 1 1 3 6 7 6 4 2 1 1 3 4 4 5 6 6 6 6 6 6 4 4 4 4 2 2 2
14 15 16 16 16 15 14 11 8 6 4 2 0 0 0 0 0 1 3 5 5 4 3 1 0 1 3 5 6 6 7 7 6 5 5 5 4 4 5 5 5 4 4
14 14 14 15 15 14 13 11 9 7 6 4 2 1 1 0 0 1 1 2 2 1 1 0 0 2 4 6 6 6 7 7 6 4 4 4 5 5 6 6 6 5 5
13 13 13 14 15 13 11 10 9 7 5 4 4 4 2 1 1 2 1 1 1 1 0 0 0 2 5 5 5 6 6 6 5 4 3 4 5 5 5 6 5 4 4
13 13 13 14 15 14 11 10 10 8 5 4 4 5 4 3 3 3 3 2 2 1 0 0 0 2 4 5 6 6 6 5 3 2 3 3 4 4 4 4 3 3 2
11 11 10 11 12 13 13 12 12 10 7 6 4 4 5 5 4 4 3 3 3 2 1 0 0 1 3 5 6 6 5 4 2 1 1 2 3 3 3 3 1 1 1
7 6 7 9 11 13 13 12 12 10 9 8 6 5 5 5 4 3 3 3 3 3 2 1 1 3 4 6 6 6 4 2 2 1 0 1 1 2 3 3 1 0 0
5 4 5 8 11 12 10 9 10 8 8 10 10 8 6 4 3 3 4 4 3 3 3 1 1 4 5 7 7 5 3 3 3 2 1 1 1 1 2 2 2 1 0
5 6 6 7 9 10 9 9 9 7 6 9 10 9 7 4 3 4 4 4 4 3 2 1 1 3 6 8 8 5 4 5 5 5 4 2 1 0 1 1 2 1 1
7 8 8 7 8 10 10 10 10 8 7 9 11 10 7 5 3 3 3 3 3 3 2 2 3 6 9 10 9 5 3 4 5 5 5 3 1 0 0 0 1 1 0
7 8 9 9 10 10 10 11 10 10 9 10 11 10 7 6 4 3 2 2 3 3 3 3 5 9 11 12 9 4 1 2 3 3 3 3 2 1 0 0 0 0 0
7 7 8 10 11 11 11 12 11 10 10 11 10 9 7 6 5 4 3 3 3 3 3 4 6 7 9 10 6 2 0 0 1 1 1 1 1 1 1 1 0 0 0
7 7 7 8 9 9 10 11 10 9 9 10 10 8 7 6 6 5 4 3 3 3 3 3 4 4 5 6 5 1 0 0 0 0 0 0 0 0 1 1 0 0 0
5 5 5 6 6 7 7 8 8 8 8 8 8 8 7 7 7 6 4 3 3 3 3 3 3 3 2 3 3 1 0 0 0 0 0 0 0 0 0 0 0 0 0
2 3 5 6 6 5 5 6 7 7 7 7 7 7 8 8 7 6 5 4 3 3 3 3 3 3 2 2 1 1 1 0 0 0 0 0 0 0 0 0 0 0 0
2 3 5 5 5 5 5 6 7 7 6 5 5 6 7 7 6 6 6 5 3 2 2 3 3 4 4 2 0 0 0 0 0 0 0 0 0 0 0 0 0 0 0
4 5 5 4 4 4 4 4 5 4 4 4 4 4 4 4 5 6 7 5 2 0 1 2 4 6 6 4 1 1 0 0 0 0 0 0 0 0 0 0 0 0 0
4 5 5 3 3 3 2 1 1 1 1 3 3 3 3 2 3 5 6 5 2 0 0 1 4 5 5 4 2 1 0 0 0 0 0 0 0 0 0 0 0 0 0
6 6 4 3 2 2 1 0 0 0 1 3 3 3 3 3 3 3 4 4 2 1 1 1 2 3 3 3 3 1 0 0 0 0 0 0 0 0 0 0 0 0 0
7 6 5 2 1 1 0 0 0 1 2 3 3 3 3 3 2 1 1 1 1 0 0 0 0 1 2 3 2 1 0 0 1 1 1 0 0 0 0 0 0 0 0
6 6 4 2 0 0 0 0 0 1 2 3 3 3 3 1 1 0 0 0 0 0 0 0 1 2 2 2 2 0 0 1 2 3 2 1 1 1 1 0 0 0 0
5 3 2 0 0 0 0 0 0 1 2 2 3 3 2 1 0 0 0 0 0 0 0 1 2 2 3 3 2 1 0 1 1 2 2 1 2 2 2 0 0 0 0
3 2 1 0 0 0 0 0 0 1 1 1 1 2 1 0 0 0 0 0 0 0 0 1 1 1 2 2 2 1 1 1 0 0 0 0 1 1 1 0 0 0 0
3 3 2 1 0 0 0 0 0 0 0 0 0 0 0 0 0 0 0 0 0 0 0 0 0 0 1 1 1 1 1 0 0 0 0 0 0 0 0 0 0 0 0
3 3 2 2 1 1 0 0 0 0 0 0 0 0 0 0 0 0 0 0 0 0 0 0 0 0 0 0 0 0 0 0 0 0 0 0 0 0 0 0 0 0 0
3 3 2 1 2 2 1 0 0 0 0 0 0 0 0 0 0 0 0 0 0 0 0 0 0 0 0 0 0 0 0 0 0 0 0 0 0 0 0 1 1 1 0

GEFSMA_con_prob3kmehi_240.txt.gz
EHI
16 17 19 20 18 16 16 14 10 7 8 8 5 3 2 1 1 1 2 7 13 15 15 13 10 8 7 7 7 8 8 8 8 9 7 6 6 7 7 5 4 4 3
17 17 17 17 15 14 14 13 10 9 10 9 5 3 1 1 2 3 3 6 11 14 14 13 10 7 5 5 7 8 8 9 10 9 7 5 4 5 5 6 5 4 3
17 17 15 13 11 12 13 12 10 9 8 7 5 3 2 3 5 6 4 4 6 9 11 13 12 9 6 5 5 7 8 9 10 10 7 4 3 3 4 5 6 5 4
16 16 14 11 11 12 12 11 10 7 4 3 4 4 4 7 9 9 6 4 3 4 7 12 14 12 9 7 5 6 7 8 9 9 8 5 4 3 3 4 4 5 4
14 14 13 13 14 13 11 9 8 6 4 3 3 4 6 9 10 10 8 6 4 3 4 8 11 12 12 10 8 6 6 6 7 8 9 8 5 4 3 3 3 3 2
12 12 13 15 17 14 10 8 7 6 6 5 3 2 4 7 10 10 10 8 6 4 4 5 7 9 11 12 11 8 7 7 7 8 9 9 8 5 4 3 3 1 0
12 12 14 17 18 14 12 10 8 6 7 7 4 2 2 4 8 9 9 8 6 5 4 5 5 6 8 10 9 9 9 8 7 8 9 10 9 7 5 3 2 1 0
14 13 14 17 17 15 13 12 9 6 6 7 6 3 1 2 4 7 7 6 5 4 4 4 5 5 6 6 6 8 9 8 8 8 9 10 10 9 6 3 1 0 0
14 14 14 15 16 14 12 11 9 7 7 7 6 4 2 1 2 4 5 5 5 4 3 3 4 4 5 6 5 6 8 8 8 8 9 8 8 8 7 3 1 0 0
14 14 14 14 13 12 10 10 9 9 9 8 6 5 4 3 3 3 4 5 6 4 3 3 3 4 5 6 5 5 6 7 7 8 9 7 6 6 5 3 1 0 0
13 13 13 12 11 10 10 10 10 10 9 8 7 5 5 6 5 4 3 4 5 4 4 4 4 5 6 5 4 4 4 4 5 7 8 6 5 4 3 3 2 1 0
12 11 11 11 11 10 10 11 10 10 9 8 7 6 6 7 6 4 3 3 4 5 5 5 4 5 5 4 3 3 2 1 2 3 4 5 5 4 3 3 3 2 1
11 10 9 10 10 10 10 11 11 9 7 5 5 5 5 4 3 3 1 1 2 4 6 4 3 4 4 3 3 3 2 0 0 1 1 3 4 4 4 3 3 3 2
10 8 8 9 10 10 10 11 10 8 5 4 4 4 4 2 2 2 1 1 1 2 3 3 2 3 4 4 3 3 2 1 0 0 0 1 2 3 3 3 2 2 2
8 7 8 9 10 10 10 9 8 5 5 5 4 4 3 2 3 3 3 2 1 0 1 1 2 3 4 4 3 3 2 1 0 0 0 0 0 1 2 2 1 0 1
8 8 8 9 10 10 9 8 5 3 3 4 4 3 2 3 3 4 4 3 2 1 1 1 2 3 3 2 1 2 2 1 0 0 0 0 0 0 1 1 0 0 0
8 8 8 7 7 8 7 5 3 1 1 1 2 1 1 2 3 3 4 3 3 3 2 2 2 2 2 1 1 1 2 1 0 0 0 0 0 0 0 0 0 0 0
7 7 7 5 4 5 4 3 1 0 0 0 0 0 0 1 2 3 3 3 3 3 3 2 1 2 3 2 1 1 1 0 0 0 0 0 0 0 0 0 0 0 0
6 6 6 5 4 3 2 2 1 0 0 0 0 0 0 0 1 3 3 3 3 3 3 2 0 1 2 2 2 1 0 0 0 0 0 0 0 0 0 0 0 0 0
6 6 6 5 4 2 1 1 1 0 0 0 0 0 0 0 1 2 3 3 3 3 3 1 0 0 1 1 2 2 1 0 0 0 0 0 0 0 0 0 0 0 0
5 5 4 4 3 2 1 0 0 0 0 0 0 0 0 0 1 1 2 2 3 3 2 1 0 0 1 2 3 2 1 0 0 0 0 0 0 0 0 0 0 0 0
4 4 3 3 3 2 1 0 0 0 0 0 0 0 0 0 0 0 0 1 1 2 2 1 1 0 1 2 3 2 1 0 0 0 0 0 0 0 0 0 0 0 0
4 4 4 4 3 2 1 0 0 0 0 0 0 0 0 0 0 0 0 0 0 1 1 0 0 0 1 2 3 2 1 0 0 0 0 0 0 0 0 0 0 0 0
7 7 6 5 4 1 0 0 0 0 0 0 0 0 0 0 0 0 0 0 1 1 0 0 0 0 1 2 3 2 1 0 0 0 0 0 0 0 0 0 0 0 0
7 7 6 6 5 2 0 0 0 0 0 0 0 0 0 0 0 0 0 0 1 2 1 0 0 0 0 1 2 1 1 0 0 0 0 0 0 0 0 0 0 0 0
5 5 5 6 6 4 1 0 0 0 0 0 0 0 0 0 0 0 0 0 1 2 1 0 0 0 0 0 1 0 0 0 0 0 0 0 0 0 0 0 0 0 0

GEFSMA_con_prob3kmehi_246.txt.gz
EHI
8 6 5 4 2 1 1 2 2 2 2 2 3 3 3 2 2 1 0 2 6 9 9 8 6 6 6 8 10 10 10 9 7 5 4 3 3 3 3 3 3 1 0
6 6 5 4 3 2 2 3 2 1 1 1 2 2 2 1 1 0 0 2 5 9 10 10 8 7 7 9 10 10 9 8 7 5 4 3 3 3 4 3 3 2 1
4 4 4 4 3 3 2 2 2 1 0 0 1 1 1 0 0 0 0 1 3 6 9 10 11 9 8 9 9 10 9 7 6 5 5 4 3 4 4 4 3 3 3
3 3 3 3 3 3 1 1 1 1 1 0 0 0 0 0 0 0 0 0 0 2 4 8 11 12 10 8 8 9 8 6 5 5 4 3 3 3 4 3 3 3 3
3 3 3 3 3 3 1 0 1 2 1 0 0 0 0 0 0 0 0 0 0 0 1 4 8 10 10 8 7 7 7 6 6 5 4 3 3 3 3 3 3 3 3
3 3 3 3 3 3 2 1 1 1 1 0 0 0 0 0 0 0 0 0 0 0 0 1 3 6 7 7 6 6 6 6 6 6 5 4 4 4 4 3 3 3 3
3 3 3 3 3 3 2 1 1 0 0 0 1 0 0 0 0 0 0 0 0 0 0 0 1 2 4 5 6 6 6 6 6 6 6 6 6 6 5 4 3 3 3
3 3 2 2 2 2 1 1 0 0 0 0 0 0 0 0 0 0 0 0 0 0 0 0 0 1 2 4 5 6 6 6 6 6 6 6 6 6 6 4 3 3 3
1 2 2 2 1 2 1 0 0 0 0 0 0 0 0 0 0 0 0 0 0 0 0 0 0 0 1 2 4 5 5 5 5 6 6 6 6 6 6 5 4 3 3
0 1 1 1 1 2 1 0 0 0 0 0 0 0 0 0 0 0 0 0 0 0 0 0 0 0 0 1 2 2 2 2 3 4 5 6 6 6 6 6 5 4 4
0 0 1 2 2 2 1 0 0 0 0 0 0 0 0 0 0 0 0 0 0 0 0 0 0 0 0 0 0 0 0 0 1 1 3 5 6 6 6 6 6 5 5
0 0 1 2 3 3 2 1 1 0 0 0 0 0 0 0 0 0 0 0 0 0 0 0 0 0 0 0 0 0 0 0 0 0 1 3 5 6 6 6 6 6 5
0 0 0 1 2 2 2 2 2 1 0 0 0 0 0 0 0 0 0 0 0 0 0 0 0 0 0 0 0 0 0 0 0 0 0 1 3 4 5 5 5 5 4
0 0 0 0 1 1 1 1 2 1 0 0 0 0 0 0 0 0 0 0 0 0 0 0 0 0 0 0 0 0 0 0 0 0 0 0 1 1 3 3 4 3 2
0 0 0 0 0 0 0 0 1 1 0 0 0 0 0 0 0 0 0 0 0 0 0 0 0 0 0 0 0 0 0 0 0 0 0 0 0 0 1 2 2 2 1
0 0 0 0 0 0 0 0 0 0 0 0 0 0 0 0 0 0 0 0 0 0 0 0 0 0 0 0 0 0 0 0 0 0 0 0 0 0 0 1 1 1 0
0 0 0 0 0 0 0 0 0 0 0 0 0 0 0 0 0 0 0 0 0 0 0 0 0 0 0 0 0 0 0 0 0 0 0 0 0 0 0 0 0 0 0
0 0 0 0 0 0 0 0 0 0 0 0 0 0 0 0 0 0 0 0 0 0 0 0 0 0 0 0 0 0 0 0 0 0 0 0 0 0 0 0 0 0 0
0 0 0 0 0 0 0 0 0 0 0 0 0 0 0 0 0 0 0 0 0 0 0 0 0 0 0 0 0 0 0 0 0 0 0 0 0 0 0 0 0 0 0
0 0 0 0 0 0 0 0 0 0 0 0 0 0 0 0 0 0 0 0 0 0 0 0 0 0 0 0 0 0 0 0 0 0 0 0 0 0 0 0 0 0 0
0 0 0 0 0 0 0 0 0 0 0 0 0 0 0 0 0 0 0 0 0 0 0 0 0 0 0 0 0 0 0 0 0 0 0 0 0 0 0 0 0 0 0
0 0 0 0 0 0 0 0 0 0 0 0 0 0 0 0 0 0 0 0 0 0 0 0 0 0 0 0 0 0 0 0 0 0 0 0 0 0 0 0 0 0 0
0 0 0 0 0 0 0 0 0 0 0 0 0 0 0 0 0 0 0 0 0 0 0 0 0 0 0 0 0 0 0 0 0 0 0 0 0 0 0 0 0 0 0
0 0 0 0 0 0 0 0 0 0 0 0 0 0 0 0 0 0 0 0 0 0 0 0 0 0 0 0 0 0 0 0 0 0 0 0 0 0 0 0 0 0 0
0 0 0 0 0 0 0 0 0 0 0 0 0 0 0 0 0 0 0 0 0 0 0 0 0 0 0 0 0 0 0 0 0 0 0 0 0 0 0 0 0 0 0
0 0 0 0 0 0 0 0 0 0 0 0 0 0 0 0 0 0 0 0 0 0 0 0 0 0 0 0 0 0 0 0 0 0 0 0 0 0 0 0 0 0 0

GEFSMA_con_prob3kmehi_252.txt.gz
EHI
7 7 7 7 5 4 4 4 3 1 0 0 0 0 0 1 3 4 3 3 4 4 3 2 1 1 2 3 3 4 5 4 3 2 1 1 2 4 4 5 4 2 1
5 5 5 5 4 4 4 3 3 2 1 0 0 0 0 1 2 3 3 2 1 2 3 2 1 0 1 2 2 3 4 4 3 3 1 1 2 5 6 5 4 3 2
4 4 3 3 3 3 3 3 3 3 2 1 1 0 0 0 1 3 2 1 0 1 2 2 1 0 1 2 2 2 3 3 3 3 3 3 3 5 6 6 5 4 3
3 3 3 3 3 3 3 3 3 3 3 2 1 0 0 0 1 2 2 1 0 0 1 1 0 0 1 2 2 3 3 3 3 3 4 6 6 6 6 6 6 5 4
3 3 3 3 3 2 2 2 2 3 3 2 1 0 0 0 0 1 1 0 0 0 0 0 0 0 0 1 2 3 3 4 4 4 6 7 8 7 7 6 6 6 5
3 3 3 3 3 2 1 1 2 2 2 1 0 0 0 0 0 0 0 0 0 0 0 0 0 0 0 0 1 1 2 3 5 6 6 7 7 7 7 5 5 5 5
3 3 3 3 3 3 2 2 2 2 1 0 0 0 0 0 0 0 0 0 0 0 0 0 0 0 0 0 0 0 1 2 4 6 6 6 6 7 7 6 5 5 4
1 2 3 3 3 3 3 3 3 2 1 0 0 0 0 0 0 0 0 0 0 0 0 0 0 0 0 1 0 0 0 1 3 4 5 6 6 6 6 6 6 5 4
0 1 1 2 2 3 3 2 1 1 0 0 0 0 0 0 0 0 0 0 0 0 0 0 0 0 0 0 0 0 0 1 2 4 5 6 5 6 6 6 6 5 5
0 0 0 0 1 2 3 2 0 0 0 0 0 0 0 0 0 0 0 0 0 0 0 0 0 0 0 0 0 0 0 0 1 3 4 5 4 5 5 5 6 6 5
0 0 0 0 0 1 2 1 0 0 0 0 0 0 0 0 0 0 0 0 0 0 0 0 0 0 0 0 0 0 0 0 0 1 1 2 2 3 3 3 4 5 4
0 0 0 0 0 0 1 1 0 0 0 0 0 0 0 0 0 0 0 0 0 0 0 0 0 0 0 0 0 0 0 0 0 0 0 0 0 1 1 1 2 2 3
0 0 0 0 0 0 0 0 0 0 0 0 0 0 0 0 0 0 0 0 0 0 0 0 0 0 0 0 0 0 0 0 0 0 0 0 0 0 0 0 0 1 2
0 0 0 0 0 0 0 0 0 0 0 0 0 0 0 0 0 0 0 0 0 0 0 0 0 0 0 0 0 0 0 0 0 0 0 0 0 0 0 0 0 0 1
0 0 0 1 0 0 0 0 0 0 0 0 0 0 0 0 0 0 0 0 0 0 0 0 0 0 0 0 0 0 0 0 0 0 0 0 0 0 0 0 0 0 0
0 0 0 0 0 0 0 0 0 0 0 0 0 0 0 0 0 0 0 0 0 0 0 0 0 0 0 0 0 0 0 0 0 0 0 0 0 0 0 0 0 0 0
0 0 0 0 0 0 0 0 0 0 0 0 0 0 0 0 0 0 0 0 0 0 0 0 0 0 0 0 0 0 0 0 0 0 0 0 0 0 0 0 0 0 0
0 0 0 0 0 0 0 0 0 0 0 0 0 0 0 0 0 0 0 0 0 0 0 0 0 0 0 0 0 0 0 0 0 0 0 0 0 0 0 0 0 0 0
0 0 0 0 0 0 0 0 0 0 0 0 0 0 0 0 0 0 0 0 0 0 0 0 0 0 0 0 0 0 0 0 0 0 0 0 0 0 0 0 0 0 0
0 0 0 0 0 0 0 0 0 0 0 0 0 0 0 0 0 0 0 0 0 0 0 0 0 0 0 0 0 0 0 0 0 0 0 0 0 0 0 0 0 0 0
0 0 0 0 0 0 0 0 0 0 0 0 0 0 0 0 0 0 0 0 0 0 0 0 0 0 0 0 0 0 0 0 0 0 0 0 0 0 0 0 0 0 0
0 0 0 0 0 0 0 0 0 0 0 0 0 0 0 0 0 0 0 0 0 0 0 0 0 0 0 0 0 0 0 0 0 0 0 0 0 0 0 0 0 0 0
0 0 0 0 0 0 0 0 0 0 0 0 0 0 0 0 0 0 0 0 0 0 0 0 0 0 0 0 0 0 0 0 0 0 0 0 0 0 0 0 0 0 0
0 0 0 0 0 0 0 0 0 0 0 0 0 0 0 0 0 0 0 0 0 0 0 0 0 0 0 0 0 0 0 0 0 0 0 0 0 0 0 0 0 0 0
0 0 0 0 0 0 0 0 0 0 0 0 0 0 0 0 0 0 0 0 0 0 0 0 0 0 0 0 0 0 0 0 0 0 0 0 0 0 0 0 0 0 0
0 0 0 0 0 0 0 0 0 0 0 0 0 0 0 0 0 0 0 0 0 0 0 0 0 0 0 0 0 0 0 0 0 0 0 0 0 0 0 0 0 0 0

GEFSMA_con_prob3kmehi_258.txt.gz
EHI
13 10 7 7 8 9 9 6 5 2 1 2 2 2 2 2 2 3 4 5 7 7 6 4 3 4 4 4 3 3 2 2 2 3 1 1 1 1 0 0 0 0 0
11 8 6 5 6 8 8 5 4 4 2 1 1 1 1 1 2 3 4 5 5 4 4 4 3 2 3 3 3 3 2 1 2 3 2 1 1 0 0 0 0 1 1
8 6 4 3 5 7 7 5 4 5 4 1 0 0 1 1 2 3 4 4 3 2 3 2 2 2 2 2 3 3 3 2 2 3 3 2 1 1 0 0 0 1 2
5 3 3 3 4 6 7 5 4 5 4 2 1 0 1 1 1 1 1 1 1 1 2 1 1 1 2 2 2 2 3 2 3 4 4 3 3 2 1 0 0 1 2
2 1 1 2 3 5 5 4 4 5 5 3 1 0 1 1 0 0 0 0 0 1 1 1 0 1 2 2 2 2 2 3 4 5 6 5 4 2 1 0 0 0 1
2 1 1 1 2 3 3 3 5 6 5 4 2 1 2 1 1 1 0 0 0 0 0 0 0 0 1 2 2 1 1 3 6 7 7 7 5 2 0 0 0 0 0
3 2 1 1 1 3 3 4 6 6 5 4 3 3 3 3 3 2 1 0 0 0 0 0 0 1 1 2 2 2 2 3 6 7 7 7 6 3 1 0 0 1 1
3 2 1 0 1 3 4 5 7 6 4 3 3 3 3 3 2 1 0 0 0 0 0 0 0 1 2 3 3 2 2 3 4 5 6 7 7 6 4 1 1 2 4
3 2 0 0 1 2 3 4 5 5 3 3 3 3 3 2 1 0 0 0 0 0 0 0 0 1 2 3 3 2 3 3 3 3 4 5 5 6 5 3 2 4 5
5 2 0 0 1 1 1 2 3 3 3 3 3 3 4 4 2 0 0 0 0 0 0 0 0 1 2 2 2 2 2 2 2 3 3 3 4 4 4 4 4 4 5
7 4 1 0 0 0 1 1 3 3 3 3 4 5 6 5 3 1 1 0 0 0 0 0 0 1 2 2 1 1 1 1 1 2 3 3 4 4 4 4 4 5 6
9 6 2 0 0 0 1 3 4 4 4 4 5 7 7 5 4 3 2 1 1 0 0 0 0 0 1 1 1 0 0 0 0 1 1 2 3 3 4 4 4 5 5
9 8 5 3 2 2 3 6 6 6 6 5 6 8 8 6 5 4 2 1 1 0 0 0 0 0 0 0 0 0 0 0 0 0 0 1 1 1 3 4 4 4 4
9 9 8 6 5 4 5 7 8 7 6 6 5 6 7 6 6 5 3 1 1 0 0 0 0 0 0 0 0 0 0 0 0 0 0 0 0 0 1 2 3 2 1
8 8 8 6 4 3 4 6 7 7 6 6 5 5 5 4 4 4 3 2 1 0 0 0 0 0 0 0 0 0 0 0 0 0 0 0 0 0 0 1 1 1 0
6 6 5 3 1 1 1 3 5 6 6 6 5 4 3 2 2 1 1 1 0 0 0 0 0 0 0 0 0 0 0 0 0 0 0 0 0 0 0 0 0 0 0
6 4 2 0 0 0 0 1 3 4 4 4 3 2 2 1 0 0 1 1 0 0 0 0 0 0 0 0 0 0 0 0 0 0 0 0 0 0 0 0 0 0 0
5 3 1 0 0 0 0 1 1 2 2 2 1 0 0 0 0 0 1 1 0 0 0 0 0 0 0 0 0 0 0 0 0 0 0 0 0 0 0 0 0 0 0
4 2 0 0 0 0 0 0 0 0 0 0 0 0 0 0 0 0 0 0 0 0 0 0 0 0 0 0 0 0 0 0 0 0 0 0 0 0 0 0 0 0 0
2 1 0 0 0 0 0 0 0 0 0 0 0 0 0 0 0 0 0 0 0 0 0 0 0 0 0 0 0 0 0 0 0 0 0 0 0 0 0 0 0 0 0
1 0 0 0 0 0 0 0 0 0 0 0 0 0 0 0 0 0 0 0 0 0 0 0 0 0 0 0 0 0 0 0 0 0 0 0 0 0 0 0 0 0 0
0 0 0 0 0 0 0 0 0 0 0 0 0 0 0 0 0 0 0 0 0 0 0 1 1 1 0 0 0 0 0 0 0 0 0 0 0 0 0 0 0 0 0
1 1 0 0 0 0 0 0 0 0 0 0 0 0 0 0 0 0 0 0 0 0 0 1 2 2 1 0 0 0 0 1 1 1 0 0 0 0 0 0 0 0 0
0 0 0 0 0 0 0 0 0 0 0 0 0 0 0 0 0 0 0 0 0 0 0 1 1 1 1 0 0 0 1 2 2 1 0 0 0 0 0 0 0 0 0
0 0 0 0 0 0 0 0 0 0 0 0 0 0 0 0 0 0 0 1 1 0 0 0 0 0 0 0 0 0 1 2 2 0 0 0 0 0 0 0 0 0 0
0 0 0 0 0 0 0 0 0 0 0 0 0 0 0 0 0 0 1 2 2 1 0 0 0 0 0 0 1 1 1 2 2 1 0 0 0 0 0 0 0 0 0

GEFSMA_con_prob3kmehi_264.txt.gz
EHI
10 10 11 11 9 9 10 8 7 6 5 3 2 1 2 3 3 3 6 11 13 13 13 12 7 4 2 2 2 1 1 2 3 3 3 3 3 3 3 2 1 0 0
12 11 11 11 10 9 10 9 7 5 4 3 1 1 2 2 2 3 5 9 10 11 11 11 8 4 2 2 2 2 2 2 3 3 3 3 3 3 3 2 1 0 0
14 13 12 11 9 9 11 10 6 2 2 1 1 0 1 2 2 2 5 6 6 6 7 9 9 6 4 3 3 4 3 2 3 3 3 3 3 3 3 2 1 0 0
15 14 13 11 9 9 10 9 5 2 1 1 1 1 2 3 2 2 3 4 4 3 4 6 7 6 5 5 5 5 4 4 3 3 3 3 3 3 3 2 1 0 0
16 15 13 11 9 9 9 7 5 3 2 2 2 2 4 5 5 3 2 3 3 3 2 3 4 4 4 6 6 6 5 5 4 4 2 1 2 3 3 1 0 0 0
17 15 13 12 9 7 7 6 5 4 4 4 3 3 5 6 6 6 3 2 2 3 3 3 4 3 4 5 6 6 5 6 6 5 3 2 2 3 2 1 0 0 0
17 15 14 14 11 7 5 4 4 4 4 5 4 3 4 5 5 6 5 3 2 2 3 4 5 5 5 5 6 5 5 5 5 5 5 4 3 3 2 1 1 1 0
16 14 13 14 12 8 6 4 3 3 3 4 4 3 2 3 4 5 6 5 4 4 4 3 4 6 6 6 5 5 5 5 4 4 4 4 3 3 2 2 2 1 0
17 15 13 13 11 9 8 6 4 4 4 3 3 3 3 4 5 5 4 4 5 6 5 2 3 4 4 5 5 4 4 4 4 4 3 2 1 1 2 2 1 0 0
18 16 15 15 12 9 8 7 6 5 6 5 4 4 4 6 7 5 3 2 3 4 4 3 3 2 2 3 4 4 4 4 4 4 3 2 1 0 1 1 0 0 0
17 16 16 16 14 9 7 8 8 8 9 8 7 6 6 8 8 5 2 0 1 1 3 4 3 3 2 3 3 3 2 2 2 2 2 1 1 0 0 0 0 1 1
17 15 15 16 15 10 7 7 9 10 10 9 8 7 6 7 7 4 1 0 0 0 1 3 3 3 3 3 2 1 1 1 0 0 0 0 0 0 0 0 0 0 0
16 15 15 16 15 12 8 7 8 9 8 6 5 4 4 5 5 3 1 0 0 0 1 2 3 3 2 2 1 1 0 0 0 0 0 0 0 0 0 0 1 1 1
14 15 15 14 14 12 8 7 8 7 5 4 2 2 2 4 4 3 2 1 0 0 0 1 2 2 1 0 0 0 0 0 0 0 0 0 0 0 0 0 1 2 2
13 15 14 12 11 10 8 8 8 6 4 3 3 2 3 4 5 5 4 2 1 0 0 0 1 1 0 0 0 0 0 0 0 0 0 0 0 0 0 0 1 1 1
13 12 12 11 10 10 9 10 9 7 4 3 3 3 3 4 4 4 3 2 1 0 0 0 0 0 1 1 0 0 0 0 0 0 0 0 0 0 0 0 0 0 0
9 8 9 9 9 10 11 10 9 5 2 1 2 2 2 2 2 1 1 1 0 0 0 0 0 1 2 3 1 0 1 0 0 0 0 0 0 0 0 0 0 0 0
5 5 6 8 8 9 9 9 6 2 0 0 0 0 1 1 0 0 0 0 0 0 0 0 0 2 3 3 1 0 0 0 0 0 0 0 0 0 0 0 0 0 0
3 3 4 6 6 6 7 6 4 1 0 0 0 0 0 0 0 0 0 0 0 0 0 0 0 1 2 1 1 1 1 1 0 0 0 0 0 0 0 0 0 0 0
3 3 4 4 5 4 5 5 3 1 0 0 1 1 0 0 0 0 0 0 0 0 0 0 0 0 1 1 1 1 2 1 0 0 0 0 0 0 0 0 0 0 0
3 3 4 4 4 4 4 3 2 0 0 0 1 2 1 0 0 0 0 0 0 0 0 0 0 0 1 1 2 2 2 1 0 0 0 0 0 0 0 0 0 0 0
4 4 4 4 4 3 2 1 0 0 0 0 1 1 1 0 0 0 0 0 0 0 0 0 0 0 1 2 3 3 2 1 0 1 1 0 0 0 0 0 0 0 0
5 4 4 4 4 3 1 0 0 0 0 0 0 0 0 0 0 0 0 0 0 0 0 0 0 0 1 2 3 3 2 1 1 2 2 1 0 0 0 0 0 0 0
5 5 5 5 5 3 1 0 0 0 0 0 0 0 0 0 0 0 0 0 0 0 0 0 0 0 0 1 2 2 2 2 2 2 3 1 0 0 0 0 0 0 0
6 7 7 7 5 3 1 0 0 0 0 0 0 0 0 0 0 0 0 0 0 0 0 0 0 0 0 0 1 1 3 3 2 2 2 1 0 0 0 0 0 0 0
7 7 8 7 5 2 1 0 0 0 0 0 0 0 0 0 0 0 0 1 1 1 0 0 0 0 0 0 0 1 2 3 2 1 1 0 0 0 0 0 0 0 0

GEFSMA_con_prob3kmehi_270.txt.gz
EHI
5 3 1 0 1 2 3 3 3 3 3 2 1 0 0 0 0 0 1 1 2 6 10 9 7 6 5 4 2 1 1 1 1 2 1 0 0 0 0 0 0 0 0
4 3 2 0 0 1 3 3 3 3 3 2 1 0 0 0 0 0 0 0 2 7 10 10 8 6 5 4 3 2 2 2 2 3 3 2 0 0 0 0 1 1 1
3 3 1 0 0 1 2 3 3 3 3 3 1 0 0 0 0 0 0 0 1 4 6 7 7 6 5 4 3 2 2 2 3 3 4 3 2 1 1 1 1 2 2
3 2 1 0 0 1 2 3 3 3 3 3 2 0 0 0 0 0 0 0 0 1 2 3 5 6 5 4 4 3 2 3 3 3 4 4 3 2 2 1 1 1 1
4 2 1 0 0 0 1 2 3 3 3 3 1 0 0 0 0 0 0 0 0 0 0 1 3 5 6 6 6 5 4 4 4 4 4 3 3 3 2 1 0 0 0
4 3 2 1 1 0 0 1 1 2 2 2 1 0 0 0 0 0 0 0 0 0 0 0 1 3 6 8 7 6 6 5 4 4 4 3 3 3 3 1 0 0 0
5 4 3 2 1 0 0 0 0 1 1 1 0 0 0 0 0 0 0 0 0 0 0 0 0 1 3 5 6 6 6 5 4 3 2 3 3 3 3 2 1 0 0
5 4 3 3 2 1 0 0 0 0 0 0 0 0 0 0 0 0 0 0 0 0 0 0 0 0 1 2 3 5 6 5 4 3 2 2 3 3 3 2 1 0 0
4 3 2 2 2 1 0 0 0 0 0 0 0 0 0 0 0 0 0 0 0 0 0 0 0 0 0 0 1 3 4 4 3 3 3 3 2 2 3 2 1 0 0
4 3 2 1 1 1 0 0 0 0 0 0 0 0 0 0 0 0 0 0 0 0 0 0 0 0 0 0 0 1 2 2 3 3 4 4 2 1 2 2 1 0 0
6 5 3 1 0 0 0 0 0 0 0 0 0 0 0 0 0 0 0 0 0 0 0 0 0 0 0 0 0 0 0 1 2 3 3 4 3 1 1 2 1 0 0
6 5 4 3 2 1 0 0 0 0 0 0 0 0 0 0 0 0 0 0 0 0 0 0 0 0 0 0 0 0 0 0 1 1 2 3 3 2 1 1 1 0 0
5 5 5 5 4 3 1 0 0 0 0 0 0 0 0 0 0 0 0 0 0 0 0 0 0 0 0 0 0 0 0 0 0 0 1 2 2 2 1 0 0 0 0
4 5 6 6 6 5 3 1 0 0 0 0 0 0 0 0 0 0 0 0 0 0 0 0 0 0 0 0 0 0 0 0 0 0 0 1 1 1 1 0 0 0 0
3 3 5 5 5 5 4 3 1 0 0 0 0 0 0 0 0 0 0 0 0 0 0 0 0 0 0 0 0 0 0 0 0 0 0 0 0 0 0 0 0 0 0
2 2 2 2 3 4 4 4 3 1 0 0 0 0 0 0 0 0 0 0 0 0 0 0 0 0 0 0 0 0 0 0 0 0 0 0 0 0 0 0 0 0 0
1 1 1 0 1 2 3 4 3 2 1 0 0 0 0 0 0 0 0 0 0 0 0 0 0 0 0 0 0 0 0 0 0 0 0 0 0 0 0 0 0 0 0
0 0 0 0 0 2 3 3 3 3 1 0 0 0 0 0 0 0 0 0 0 0 0 0 0 0 0 0 0 0 0 0 0 0 0 0 0 0 0 0 0 0 0
0 0 0 0 0 2 3 3 3 3 2 1 0 0 0 0 0 0 0 0 0 0 0 0 0 0 0 0 0 0 0 0 0 0 0 0 0 0 0 0 0 0 0
0 0 0 0 0 1 2 3 3 3 3 2 1 0 0 0 0 0 0 0 0 0 0 0 0 0 0 0 0 0 0 0 0 0 0 0 0 0 0 0 0 0 0
0 0 0 0 0 0 1 2 3 3 3 3 2 1 0 0 0 0 0 0 0 0 0 0 0 0 0 0 0 0 0 0 0 0 0 0 0 0 0 0 0 0 0
0 0 0 0 0 0 0 1 1 2 3 3 2 1 0 0 0 0 0 0 0 0 0 0 0 0 0 0 0 0 0 0 0 0 0 0 0 0 0 0 0 0 0
0 0 0 0 0 0 0 0 0 1 1 2 2 1 0 0 0 0 0 0 0 0 0 0 0 0 0 0 0 0 0 0 0 0 0 0 0 0 0 0 0 0 0
0 0 0 0 0 0 0 0 0 0 0 1 1 1 0 0 0 0 0 0 0 0 0 0 0 0 0 0 0 0 0 0 0 0 0 0 0 0 0 0 0 0 0
0 0 0 0 0 0 0 0 0 0 0 0 0 0 0 0 0 0 0 0 0 0 0 0 0 0 0 0 0 0 0 0 0 0 0 0 0 0 0 0 0 0 0
0 0 0 0 0 0 0 0 0 0 0 0 0 0 0 0 0 0 0 0 0 0 0 0 0 0 0 0 0 0 0 0 0 0 0 0 0 0 0 0 0 0 0

GEFSMA_con_prob3kmehi_276.txt.gz
EHI
6 6 5 4 4 3 3 4 3 2 1 0 0 0 0 0 0 0 0 0 0 0 0 0 0 0 0 0 0 0 0 0 0 0 0 0 0 0 0 0 0 0 0
6 6 6 5 4 3 3 4 4 3 2 0 0 0 0 0 0 0 0 0 0 0 0 0 0 0 0 0 1 1 0 0 0 0 0 0 0 0 0 0 0 0 0
6 6 6 6 5 4 3 4 5 4 1 0 0 0 0 0 0 0 0 0 0 0 0 0 0 1 1 1 1 1 0 0 0 0 0 0 0 0 0 0 0 0 0
4 4 4 5 5 4 3 3 3 2 0 0 0 0 0 0 0 0 0 0 0 0 0 0 0 1 2 1 1 1 0 0 0 0 0 0 0 0 0 0 0 0 0
3 3 3 3 3 2 1 1 1 0 0 0 0 0 0 0 0 0 0 0 0 0 0 0 0 1 1 1 0 0 0 0 0 0 0 0 0 0 0 0 0 0 0
2 1 1 1 1 0 0 0 0 0 0 0 0 0 0 0 0 0 0 0 0 0 0 0 0 0 0 1 1 0 0 0 0 0 0 0 0 0 0 0 0 0 0
1 0 0 0 0 0 0 0 0 0 0 0 0 0 0 0 0 0 0 0 0 0 0 0 0 0 0 0 1 1 0 0 0 0 0 0 0 0 0 0 0 0 0
0 0 0 0 0 0 0 0 0 0 0 0 0 0 0 0 0 0 0 0 0 0 0 0 0 0 0 0 0 0 0 1 1 0 0 0 0 0 0 0 0 0 0
0 0 0 0 0 0 0 0 0 0 0 0 0 0 0 0 0 0 0 0 0 0 0 0 0 0 0 0 0 0 0 1 1 0 0 1 2 1 0 0 0 0 0
0 0 0 0 0 0 0 0 0 0 0 0 0 0 0 0 0 0 0 0 0 0 0 0 0 0 0 0 0 0 0 1 1 0 0 1 2 3 2 1 0 0 0
0 0 0 0 0 0 0 0 0 0 0 0 0 0 0 0 0 0 0 0 0 0 0 0 0 0 0 0 0 0 0 0 0 0 0 0 1 2 2 2 1 1 0
0 0 0 0 0 0 0 0 0 0 0 0 0 0 0 0 0 0 0 0 0 0 0 0 0 0 0 0 0 0 0 0 0 0 0 0 0 1 1 2 2 2 1
0 1 1 1 0 0 0 0 0 0 0 0 0 0 0 0 0 0 0 0 0 0 0 0 0 0 0 0 0 0 0 0 0 0 0 0 0 0 0 1 2 2 1
1 2 2 2 1 0 0 0 0 0 0 0 0 0 0 0 0 0 0 0 0 0 0 0 0 0 0 0 0 0 0 0 0 0 0 0 0 0 0 0 1 1 0
3 3 3 2 1 0 0 0 0 0 0 0 0 0 0 0 0 0 0 0 0 0 0 0 0 0 0 0 0 0 0 0 0 0 0 0 0 0 0 0 0 0 0
2 2 2 1 1 0 0 0 0 0 0 0 0 0 0 0 0 0 0 0 0 0 0 0 0 0 0 0 0 0 0 0 0 0 0 0 0 0 0 0 0 0 0
1 1 1 1 0 0 0 0 0 0 0 0 0 0 0 0 0 0 0 0 0 0 0 0 0 0 0 0 0 0 0 0 0 0 0 0 0 0 0 0 0 0 0
0 0 0 1 0 0 0 0 0 0 0 1 1 1 1 0 0 0 0 0 0 0 0 0 0 0 0 0 0 0 0 0 0 0 0 0 0 0 0 0 0 0 0
1 0 0 0 0 0 0 0 0 0 0 1 1 2 1 1 1 0 0 0 0 0 0 0 0 0 0 0 0 0 0 0 0 0 0 0 0 0 0 0 0 0 0
2 1 0 0 0 0 0 0 0 0 0 0 1 1 1 2 2 1 0 0 0 0 0 0 0 0 0 0 0 0 0 0 0 0 0 0 0 0 0 0 0 0 0
2 1 0 0 0 0 0 0 0 0 0 0 0 0 0 1 1 1 0 0 0 0 0 0 0 0 0 0 0 0 0 0 0 0 0 0 0 0 0 0 0 0 0
1 1 0 0 0 0 0 0 0 0 0 0 0 0 0 0 0 0 0 0 0 0 0 0 0 0 0 0 0 0 0 0 0 0 0 0 0 0 0 0 0 0 0
0 0 0 0 0 0 0 0 0 0 0 0 0 0 0 0 0 0 0 0 0 0 0 0 0 0 0 0 0 0 0 0 0 0 0 0 0 0 0 0 0 0 0
0 0 0 0 0 0 0 0 0 0 0 0 0 0 0 0 0 0 0 0 0 0 0 0 0 0 0 0 0 0 0 0 0 0 0 0 0 0 0 0 0 0 0
0 0 0 0 0 0 0 0 0 0 0 0 0 0 0 0 0 0 0 0 0 0 0 0 0 0 0 0 0 0 0 0 0 0 0 0 0 0 0 0 0 0 0
0 0 0 0 0 0 0 0 0 0 0 0 0 0 0 0 0 0 0 0 0 0 0 0 0 0 0 0 0 0 0 0 0 0 0 0 0 0 0 0 0 0 0

GEFSMA_con_prob3kmehi_282.txt.gz
EHI
11 9 9 10 9 7 5 5 4 3 1 0 0 0 0 1 2 3 2 1 0 0 0 0 0 0 0 0 0 0 0 0 0 0 0 0 0 0 0 0 0 0 0
11 9 9 9 7 5 5 5 4 3 2 1 1 1 1 2 3 3 2 0 0 0 0 0 0 0 0 0 0 0 0 0 0 0 0 0 0 0 0 0 0 0 0
10 8 8 8 5 3 4 4 4 3 3 3 3 3 3 3 4 3 2 1 0 0 0 0 0 0 0 0 0 0 0 0 0 0 0 0 0 0 0 0 0 0 0
7 7 7 6 4 3 3 3 3 3 3 4 5 5 4 3 2 2 1 1 1 1 0 0 0 0 0 0 1 1 1 1 1 1 1 1 1 0 0 0 0 0 0
6 6 6 6 4 3 4 4 3 3 4 5 5 5 4 3 1 0 1 1 0 1 1 0 0 0 0 0 1 1 1 2 3 3 2 2 1 0 0 0 0 0 0
6 6 6 5 4 4 4 4 4 3 3 4 4 4 4 3 1 0 0 0 0 0 0 0 0 0 0 0 0 0 1 3 4 4 3 1 0 0 0 0 0 0 0
4 4 4 4 3 3 4 4 3 2 1 2 3 5 6 4 1 0 0 0 0 0 0 0 0 0 0 0 0 0 1 2 4 4 3 1 0 0 0 0 0 0 0
4 4 3 3 3 3 3 3 3 1 0 0 2 5 7 5 2 0 0 0 0 0 0 0 0 0 0 0 0 0 0 1 2 3 2 1 0 0 0 0 0 0 0
6 5 4 3 4 3 3 3 3 1 0 0 1 3 6 5 3 1 0 0 0 0 0 0 0 0 0 0 1 0 0 0 1 2 1 0 0 0 0 0 0 0 0
7 6 4 5 5 4 3 3 3 2 0 0 0 2 4 5 4 2 0 0 0 0 0 0 0 0 0 1 1 0 0 0 0 0 0 0 0 0 0 0 0 0 0
6 5 4 7 8 6 4 4 3 2 1 1 1 1 3 4 3 1 0 1 1 1 1 1 1 1 1 1 1 0 0 0 0 0 0 0 0 0 0 0 0 0 0
6 5 5 7 9 7 6 6 5 3 2 2 2 2 3 4 3 2 1 2 2 3 4 5 3 2 1 0 0 0 0 0 0 0 0 0 0 0 0 0 0 0 0
8 6 6 8 8 6 6 6 6 5 4 3 3 3 3 4 4 4 3 3 3 4 6 7 5 3 1 1 1 0 0 0 0 0 0 0 0 0 0 0 0 0 0
7 7 8 8 7 5 4 6 6 6 5 4 3 3 4 4 4 4 3 3 3 4 5 5 5 3 3 3 2 1 1 0 0 0 0 0 0 0 0 0 0 0 0
5 6 7 8 7 6 5 5 6 7 6 4 2 3 4 5 4 3 3 3 3 3 4 4 4 3 3 4 4 2 1 0 0 0 0 0 0 0 0 0 0 0 0
3 3 4 6 6 6 5 5 5 5 6 5 3 2 3 3 3 3 3 3 4 4 3 3 3 3 3 3 3 2 1 0 0 0 0 0 0 0 0 0 0 0 0
3 2 2 3 4 4 5 5 4 4 5 5 3 1 1 1 2 3 3 4 5 5 4 3 3 3 4 3 3 3 1 1 1 0 0 0 0 0 0 0 0 0 0
3 3 2 1 1 2 4 4 3 3 4 4 2 0 0 0 1 2 3 3 4 4 3 3 3 4 4 4 4 4 3 3 2 1 0 0 0 0 0 0 0 0 0
4 4 4 2 1 2 3 3 2 2 2 2 1 0 0 0 1 2 2 2 3 3 4 4 4 5 5 5 4 4 4 4 3 2 1 0 0 0 0 0 0 0 0
5 5 5 4 3 3 3 3 2 3 2 1 0 0 0 0 1 2 2 2 2 3 4 4 4 5 6 6 5 4 3 4 3 3 2 1 1 0 0 0 0 0 0
7 7 7 6 6 4 3 3 3 3 3 2 0 0 0 0 1 1 1 2 2 3 3 3 3 5 6 7 6 4 3 3 3 3 3 3 2 1 1 1 0 0 0
9 9 8 8 8 6 3 2 2 3 2 1 0 0 0 0 0 0 0 1 1 2 3 3 3 4 5 6 6 5 4 3 3 3 3 3 3 3 3 2 1 0 0
10 10 9 9 9 7 2 0 1 2 1 0 0 0 0 0 0 0 0 0 0 0 1 2 2 3 3 4 5 5 5 4 4 3 3 3 3 4 3 2 1 0 0
9 9 9 9 8 6 2 0 0 1 1 1 2 1 0 0 0 0 0 0 0 0 0 0 1 1 1 2 3 5 5 5 4 3 3 3 3 2 2 2 1 0 0
7 7 6 6 5 3 1 0 0 0 1 2 3 2 1 0 0 0 0 0 0 0 0 0 0 0 0 1 1 3 3 3 3 2 3 3 1 1 1 1 1 0 0
5 5 4 4 4 2 1 0 0 0 1 3 3 2 1 0 0 0 0 0 1 1 1 0 0 0 0 0 0 1 1 1 1 2 3 2 1 0 0 1 0 0 0